Weather History for KMQE - December, 2012

Change the Weather History Date:

Monday, December 24, 2012

  Actual Average (KBOS) Record (KBOS)
Temperature  
Mean Temperature 32 °F 32 °F  
Max Temperature 37 °F 39 °F 61 °F (1996)
Min Temperature 28 °F 26 °F 0 °F (1943)
Degree Days  
Heating Degree Days 32 33  
Month to date heating degree days 700  
Since 1 July heating degree days 1755  
Cooling Degree Days 0 0  
Month to date cooling degree days 0  
Year to date cooling degree days 747  
Moisture  
Dew Point 17 °F    
Average Humidity 52    
Maximum Humidity 66    
Minimum Humidity 41    
Precipitation  
Precipitation 0.00 in 0.12 in 1.33 in (1994)
Month to date precipitation 3.00  
Year to date precipitation 42.99  
Sea Level Pressure  
Sea Level Pressure 30.02 in    
Wind  
Wind Speed 11 mph (West)    
Max Wind Speed 16 mph    
Max Gust Speed 23 mph    
T = Trace of Precipitation, MM = Missing Value Source: NWS Daily Summary

Daily Weather History Graph

Daily Weather History Graph

Search for Another Location

Airport or City:

Trip Planner

Search our weather history database for the weather conditions in past years. The results will help you decide how hot, cold, wet, or windy it might be!

Date:

Astronomy

Dec. 24, 2012 Rise Set
Actual Time 7:11 AM EST 4:17 PM EST
Civil Twilight 6:39 AM EST 4:49 PM EST
Nautical Twilight 6:04 AM EST 5:24 PM EST
Astronomical Twilight 5:29 AM EST 5:58 PM EST
Moon 1:44 PM EST (12/24) 3:45 AM EST (12/24)
Length of Visible Light 10h 09m
Length of Day
9h 05m
Waxing Gibbous, 88% of the Moon is Illuminated
Dec 24
Waxing Gibbous
Dec 28
Full
Jan 4
Last Quarter
Jan 11
New
Jan 18
First Quarter

Hourly Weather History & Observations

Time (EST) Temp. Windchill Dew Point Humidity Pressure Visibility Wind Dir Wind Speed Gust Speed Precip Events Conditions
12:54 AM 30.9 °F 20.2 °F 18.0 °F 59% 29.90 in - West 15.0 mph - N/A   Unknown
1:54 AM 30.9 °F 20.7 °F 17.1 °F 57% 29.92 in - WSW 13.8 mph 20.7 mph N/A   Unknown
2:54 AM 30.9 °F 19.8 °F 17.1 °F 57% 29.92 in - West 16.1 mph 23.0 mph N/A   Unknown
3:54 AM 30.9 °F 20.2 °F 17.1 °F 57% 29.93 in - West 15.0 mph - N/A   Unknown
4:54 AM 30.0 °F 20.0 °F 17.1 °F 59% 29.94 in - West 12.7 mph - N/A   Unknown
5:54 AM 28.9 °F 19.8 °F 17.1 °F 61% 29.97 in - West 10.4 mph - N/A   Unknown
6:54 AM 28.9 °F 19.8 °F 18.0 °F 64% 30.01 in - West 10.4 mph - N/A   Unknown
7:54 AM 28.0 °F 18.6 °F 18.0 °F 66% 30.03 in - West 10.4 mph - N/A   Unknown
8:54 AM 30.9 °F 22.2 °F 19.0 °F 61% 30.06 in - WNW 10.4 mph - N/A   Unknown
9:54 AM 33.1 °F 24.4 °F 17.1 °F 52% 30.05 in - NW 11.5 mph 21.9 mph N/A   Unknown
10:54 AM 36.0 °F 28.5 °F 17.1 °F 46% 30.06 in - West 10.4 mph - N/A   Unknown
11:54 AM 37.0 °F 32.4 °F 17.1 °F 44% 30.04 in - WNW 5.8 mph - N/A   Unknown
12:54 PM 37.0 °F 32.4 °F 16.0 °F 42% 30.03 in - West 5.8 mph - N/A   Unknown
1:54 PM 37.9 °F 33.5 °F 16.0 °F 41% 30.05 in - SW 5.8 mph - N/A   Unknown
2:54 PM 36.0 °F 29.6 °F 16.0 °F 44% 30.06 in - West 8.1 mph - N/A   Unknown
3:54 PM 35.1 °F 30.1 °F 16.0 °F 46% 30.06 in - WNW 5.8 mph - N/A   Unknown
4:54 PM 34.0 °F 28.0 °F 15.1 °F 46% 30.07 in - West 6.9 mph - N/A   Unknown
5:54 PM 33.1 °F 30.0 °F 14.0 °F 46% 30.06 in - WNW 3.5 mph - N/A   Unknown
6:54 PM 34.0 °F 31.0 °F 14.0 °F 44% 30.08 in - WSW 3.5 mph - N/A   Unknown
7:54 PM 32.0 °F 28.7 °F 16.0 °F 52% 30.07 in - South 3.5 mph - N/A   Unknown
8:54 PM 33.1 °F 28.7 °F 19.0 °F 56% 30.07 in - SW 4.6 mph - N/A   Unknown
9:54 PM 33.1 °F 27.7 °F 16.0 °F 50% 30.05 in - NNE 5.8 mph - N/A   Unknown
10:54 PM 33.1 °F - 15.1 °F 48% 30.04 in - Calm Calm - N/A   Unknown
11:54 PM 33.1 °F 28.7 °F 19.0 °F 56% 30.03 in - ENE 4.6 mph - N/A   Unknown